sat.trackr.live / text

‹ back to catalog

STARLINK-36875

NORAD 68300 · 2026-057G

PAYLOAD ACTIVE UNKNOWN

§ Identity

Operator
Country
US
Launch date
2026-03-20
Launch site
AFWTR
Launch vehicle
Mass (kg)
RCS (m²)

Purposes: comms

External: N2YO · Heavens-Above · Gunter

§ Orbital elements

Epoch: 2026-05-25T05:05:03.624000Z

Period
91.41 min
Inclination
97.2853°
Eccentricity
0.0000972
Mean motion
15.75272897 rev/d
Perigee alt
343.2 km
Apogee alt
344.5 km
Semi-major
6,722.0 km
B*
1.9811e-3
RAAN
271.4933°
Arg perigee
81.8453°
Mean anomaly
278.2922°
Rev number
1,033

§ Raw data

STARLINK-368751 68300U 26057G   26145.21184750  .00307349  00000+0  19811-2 0  99902 68300  97.2853 271.4933 0000972  81.8453 278.2922 15.75272897 10331

JSON: /api/v1/satellites/68300 · /tle

For live sub-satellite position, see the globe view (requires WebGL).

§ Visibility from observer

Set your observer location to see the next 7 days of passes ≥ 10°. The values pass through the URL so the page stays shareable.

No JS? Fill the form by hand. The geolocation button needs JavaScript.